Weather History for Pensacola, FL

Change the Weather History Date:

Thursday, February 13, 2014

  Actual Average Record
Temperature  
Mean Temperature 48 °F 54 °F  
Max Temperature 58 °F 63 °F 79 °F (1950)
Min Temperature 38 °F 45 °F 7 °F (1899)
Degree Days  
Heating Degree Days 17 11  
Month to date heating degree days 156 156  
Since 1 July heating degree days 1232 1167  
Cooling Degree Days 0 0  
Month to date cooling degree days 0 0  
Year to date cooling degree days 0 6  
Moisture  
Dew Point 35 °F    
Average Humidity 60    
Maximum Humidity 83    
Minimum Humidity 36    
Precipitation  
Precipitation T in 0.17 in 2.84 in (1936)
Month to date precipitation 2.25 2.31  
Year to date precipitation 5.70 6.94  
Snow  
Snow 0.00 in 0.00 in - ()
Month to date snowfall T 0.0  
Since 1 July snowfall 1.0 0.0  
Snow Depth 0.00 in    
Sea Level Pressure  
Sea Level Pressure 29.96 in    
Wind  
Wind Speed 10 mph (NW)    
Max Wind Speed 25 mph    
Max Gust Speed 32 mph    
Visibility 10 miles    
Events Rain    
T = Trace of Precipitation, MM = Missing Value Source: NWS Daily Summary

Daily Weather History Graph

Daily Weather History Graph

Search for Another Location

Airport:

Trip Planner

Search our weather history database for the weather conditions in past years. The results will help you decide how hot, cold, wet, or windy it might be!

Date:

Astronomy

Feb. 13, 2014 Rise Set
Actual Time 6:30 AM CST 5:35 PM CST
Civil Twilight 6:06 AM CST 6:00 PM CST
Nautical Twilight 5:37 AM CST 6:28 PM CST
Astronomical Twilight 5:09 AM CST 6:56 PM CST
Moon 4:43 PM CST (2/13) 5:22 AM CST (2/13)
Length of Visible Light 11h 53m
Length of Day
11h 04m
Waxing Gibbous, 99% of the Moon is Illuminated
Feb 13
Waxing Gibbous
Feb 14
Full
Feb 22
Last Quarter
Mar 1
New
Mar 8
First Quarter

Hourly Weather History & Observations

Time (CST) Temp. Windchill Dew Point Humidity Pressure Visibility Wind Dir Wind Speed Gust Speed Precip Events Conditions
12:00 AM 42.1 °F 36.6 °F 37.0 °F 82% 29.87 in 10.0 mi NW 9.2 mph - N/A   Overcast
12:34 AM 42.1 °F 37.1 °F 37.9 °F 85% 29.87 in 10.0 mi NW 8.1 mph - N/A   Overcast
12:53 AM 42.1 °F 36.6 °F 37.9 °F 85% 29.88 in 10.0 mi NW 9.2 mph - N/A   Overcast
1:37 AM 42.1 °F 36.6 °F 37.9 °F 85% 29.88 in 10.0 mi NNW 9.2 mph - N/A   Overcast
1:53 AM 42.1 °F 35.2 °F 37.9 °F 85% 29.89 in 10.0 mi NW 12.7 mph - N/A   Overcast
2:39 AM 42.1 °F 36.1 °F 37.9 °F 85% 29.89 in 8.0 mi NW 10.4 mph - N/A   Overcast
2:53 AM 41.0 °F 33.9 °F 37.9 °F 89% 29.90 in 6.0 mi NW 12.7 mph - 0.00 in Rain Light Rain
3:25 AM 41.0 °F 33.9 °F 37.0 °F 86% 29.90 in 10.0 mi NW 12.7 mph - 0.00 in   Overcast
3:53 AM 39.9 °F 31.4 °F 35.1 °F 83% 29.92 in 10.0 mi NW 16.1 mph 20.7 mph 0.00 in   Overcast
4:53 AM 39.9 °F 32.1 °F 33.1 °F 77% 29.94 in 10.0 mi NNW 13.8 mph 25.3 mph N/A   Overcast
5:53 AM 39.9 °F 31.8 °F 32.0 °F 73% 29.96 in 10.0 mi NNW 15.0 mph - N/A   Overcast
6:53 AM 39.0 °F 32.8 °F 32.0 °F 76% 29.99 in 10.0 mi NNW 9.2 mph - N/A   Overcast
7:53 AM 39.0 °F 30.3 °F 32.0 °F 76% 30.01 in 10.0 mi NNW 16.1 mph - N/A   Overcast
8:53 AM 41.0 °F 31.9 °F 33.1 °F 73% 30.02 in 10.0 mi NNW 19.6 mph 25.3 mph N/A   Overcast
9:53 AM 45.0 °F 39.3 °F 34.0 °F 65% 30.03 in 10.0 mi NNW 11.5 mph - N/A   Mostly Cloudy
10:00 AM 46.0 °F 41.0 °F 34.0 °F 63% 30.02 in 10.0 mi NW 10.4 mph - N/A   Scattered Clouds
10:07 AM 46.0 °F 39.6 °F 34.0 °F 63% 30.02 in 10.0 mi NNW 15.0 mph - N/A   Mostly Cloudy
10:53 AM 48.9 °F - 34.0 °F 56% 30.01 in 10.0 mi North 8.1 mph - N/A   Partly Cloudy
11:53 AM 52.0 °F - 33.1 °F 49% 29.99 in 10.0 mi NW 13.8 mph - N/A   Clear
12:53 PM 55.0 °F - 33.1 °F 43% 29.96 in 10.0 mi NNW 11.5 mph 19.6 mph N/A   Clear
1:53 PM 57.0 °F - 33.1 °F 40% 29.95 in 10.0 mi NW 8.1 mph - N/A   Clear
2:53 PM 57.9 °F - 32.0 °F 37% 29.94 in 10.0 mi NW 8.1 mph - N/A   Clear
3:53 PM 57.9 °F - 30.9 °F 36% 29.96 in 10.0 mi NNW 9.2 mph - N/A   Clear
4:53 PM 55.9 °F - 32.0 °F 40% 29.96 in 10.0 mi NW 8.1 mph - N/A   Clear
5:53 PM 52.0 °F - 33.1 °F 49% 29.98 in 10.0 mi West 6.9 mph - N/A   Clear
6:53 PM 48.0 °F - 34.0 °F 58% 29.99 in 10.0 mi WNW 5.8 mph - N/A   Clear
7:53 PM 46.9 °F - 37.9 °F 71% 30.01 in 10.0 mi West 10.4 mph - N/A   Clear
8:53 PM 46.0 °F 43.1 °F 39.9 °F 79% 30.01 in 10.0 mi West 5.8 mph - N/A   Clear
9:53 PM 45.0 °F 41.8 °F 39.9 °F 82% 30.02 in 9.0 mi West 5.8 mph - N/A   Clear
10:53 PM 44.1 °F 40.1 °F 39.9 °F 85% 30.03 in 9.0 mi West 6.9 mph - N/A   Clear
11:53 PM 43.0 °F 40.3 °F 39.9 °F 89% 30.01 in 8.0 mi West 4.6 mph - N/A   Clear